Tracking 19250 objects as of 24-Sep-2018
HD Live streaming from Space Station
objects crossing your sky now

FENGYUN 1C DEB

Track FENGYUN 1C DEB now!
10-day predictions


NORAD ID: 31954
Int'l Code: 1999-025CNF
Perigee: 840.9 km
Apogee: 977.7 km
Inclination: 98.1 °
Period: 103.0 minutes
Semi major axis: 7280 km
RCS: 0.0089 m2 (small)
Launch date: May 10, 1999
Source: People's Republic of China (PRC)
Launch site: Taiyaun Space Center, China (TSC)

Note: This is SATELLITE DEBRIS
aabbcc
Your satellite tracking list
Your tracking list is empty




NASA's NSSDC Master Catalog

Two Line Element Set (TLE):
1 31954U 99025CNF 18258.98483762 +.00000272 +00000-0 +21057-3 0  9997
2 31954 098.1482 157.9910 0093972 092.1767 269.0163 13.97594405581435
Source of the keplerian elements: AFSPC